[[{"header":{"parameterUnit":"m.s-1","parameterCategory":1,"la1":30.2991,"la2":30.254,"lo1":-89.0895,"lo2":-89.0444,"dy":0.0017,"dx":0.0017,"nx":28,"ny":28,"refTime":"2026-02-12T03:00:00:Z","depth":0,"parameterNumber":2,"parameterNumberName":"U-component_of_WINDS"},"data":[0,0,0,0,0,0,0,0,0,0,0,0,0,0,0,0,0,0,0,0,0,0,0,0,0,0,0,0,0,0,0,0,0,0,0,0,0,0,0,0,0,0,0,0,0,0,0,0,0,0,0,0,0,0,0,0,0,0,0.0652,0.0653,0,0.073,0.0731,0.0732,0.0779,0.0779,0.0779,0.078,0.0859,0.086,0.0862,0,0,0,0,0,0,0,0,0,0,0,0,0,0.0542,0.0543,0.0652,0.0653,0.0654,0.073,0.0731,0.0732,0.0779,0.0779,0.0779,0.078,0.0858,0.086,0.0862,0,0,0,0,0,0,0,0,0,0,0,0,0,0.0602,0.0544,0.0652,0.0687,0.0691,0.073,0.0731,0.0733,0.0779,0.0779,0.078,0.078,0.0857,0.086,0.0863,0.0874,0,0,0.0871,0.0873,0,0,0,0,0,0,0,0,0.0598,0.0606,0.0681,0.0684,0.0689,0.0745,0.0721,0.078,0.0779,0.0745,0.078,0.078,0.0821,0.0826,0.084,0.0877,0.0881,0.0872,0.0873,0.0875,0.0875,0,0,0,0,0,0,0,0.0594,0.0603,0.0683,0.0682,0.0687,0.0698,0.0706,0.0732,0.078,0.0748,0.0752,0.076,0.0823,0.0837,0.0842,0.0882,0.0872,0.0874,0.0876,0.0877,0.0929,0.0928,0,0,0,0,0,0,0.0585,0.0599,0.0681,0.0686,0.0643,0.0699,0.0709,0.0727,0.078,0.0788,0.076,0.0762,0.0832,0.0839,0.0845,0.086,0.0875,0.0877,0.0879,0.0929,0.0929,0.0928,0,0,0,0,0,0,0.0582,0.0591,0.0678,0.0643,0.0655,0.0701,0.072,0.0728,0.0743,0.0789,0.0797,0.0766,0.0833,0.0841,0.0866,0.0863,0.0879,0.0881,0.0929,0.0929,0.0929,0.089,0,0,0,0,0,0,0.0579,0.059,0.0596,0.0643,0.0657,0.0697,0.072,0.0729,0.0748,0.0751,0.0797,0.0805,0.0834,0.0861,0.0868,0.0868,0.0883,0.093,0.0929,0.0929,0.0891,0.0888,0.0885,0,0,0,0,0,0.0574,0.0582,0.0596,0.0605,0.0664,0.0697,0.0705,0.0738,0.0747,0.0752,0.0782,0.0803,0.0862,0.0863,0.0872,0.0872,0.093,0.0929,0.0929,0.0893,0.0889,0.0885,0,0,0,0,0,0,0.0533,0.0589,0.0605,0.0628,0.0657,0.0705,0.0713,0.0733,0.076,0.0763,0.0803,0.0812,0.0832,0.0855,0.0855,0.0884,0.0899,0.09,0.0868,0.0865,0.0862,0.0856,0.0886,0,0,0,0,0,0.0527,0.0549,0.0597,0.0612,0.0626,0.0666,0.0682,0.0705,0.0737,0.075,0.0781,0.0811,0.0836,0.0852,0.0878,0.0895,0.0904,0.0899,0.0895,0.0893,0.0893,0.0901,0.0899,0.0926,0.0926,0.0926,0,0,0.0514,0.0547,0.0559,0.0605,0.063,0.0652,0.0677,0.0699,0.0715,0.0753,0.0778,0.0801,0.0837,0.0857,0.0868,0.0876,0.0887,0.0892,0.0889,0.0891,0.09,0.0898,0.0895,0.0925,0.0926,0.0926,0,0,0.0501,0.0529,0.0545,0.0569,0.0607,0.0634,0.0637,0.0681,0.0698,0.0723,0.0752,0.0771,0.0814,0.0837,0.0855,0.0848,0.0869,0.0855,0.0839,0.0846,0.0844,0.0843,0.0838,0.0837,0.0856,0.0856,0.0855,0,0.0481,0.0515,0.055,0.057,0.0588,0.0623,0.0638,0.066,0.0704,0.0716,0.0725,0.0778,0.0805,0.083,0.0828,0.0841,0.0845,0.0851,0.0842,0.0841,0.0839,0.0836,0.0834,0.0854,0.0854,0.0854,0.0854,0,0.0486,0.0509,0.0517,0.0558,0.0577,0.0594,0.0631,0.0646,0.0667,0.0691,0.0715,0.0748,0.078,0.0788,0.0809,0.0815,0.0819,0.0834,0.085,0.0834,0.0831,0.0831,0.0851,0.0851,0.0852,0.0853,0,0,0.0451,0.051,0.0512,0.053,0.0574,0.0592,0.0609,0.0641,0.0652,0.0681,0.0696,0.073,0.0743,0.0763,0.0787,0.0794,0.0784,0.0808,0.0809,0.0801,0.079,0.0778,0.0776,0.0797,0.0797,0.0797,0.0787,0,0.0444,0.0478,0.0509,0.0532,0.0552,0.0584,0.06,0.0627,0.065,0.067,0.0696,0.0718,0.0736,0.0748,0.0756,0.0783,0.0782,0.0784,0.081,0.0811,0.0799,0.0775,0.0762,0.0751,0.0786,0.0786,0.0786,0,0.0441,0.0467,0.0492,0.0531,0.0541,0.0554,0.0583,0.0602,0.0633,0.0649,0.067,0.0694,0.0713,0.0726,0.0752,0.0752,0.0765,0.0779,0.078,0.0783,0.0797,0.0776,0.0748,0.0746,0.0785,0.0785,0.0785,0,0.0411,0.0453,0.0472,0.0487,0.0534,0.0542,0.0561,0.0593,0.0608,0.0634,0.0644,0.0672,0.0686,0.0706,0.0736,0.0744,0.0758,0.0774,0.077,0.0769,0.0772,0.0771,0.0744,0.0781,0.0781,0.0781,0.0781,0,0.04,0.0413,0.0459,0.0471,0.0486,0.0521,0.0534,0.0557,0.0584,0.0599,0.0629,0.0643,0.0682,0.07,0.0724,0.074,0.0747,0.0759,0.0765,0.0756,0.0754,0.0764,0.0765,0.0781,0.0781,0.0781,0.0781,0,0.0369,0.0401,0.0424,0.0466,0.0476,0.0485,0.052,0.0532,0.0556,0.0575,0.0582,0.0619,0.0641,0.0673,0.0706,0.0722,0.0734,0.0744,0.0723,0.0726,0.072,0.072,0.0698,0.0696,0.0735,0.0734,0.0734,0,0.036,0.0371,0.0412,0.0425,0.0443,0.0463,0.0479,0.0513,0.0528,0.0562,0.0569,0.0594,0.0616,0.065,0.0679,0.0704,0.0714,0.0705,0.0718,0.0707,0.0712,0.071,0.0711,0.0701,0.0701,0.07,0.07,0,0.0339,0.0353,0.0375,0.0402,0.0419,0.0442,0.0466,0.0474,0.0512,0.0527,0.0551,0.0567,0.0599,0.0623,0.065,0.067,0.069,0.0695,0.0695,0.0686,0.0672,0.0678,0.0713,0.0696,0.0696,0.0696,0.0697,0.0697,0.0318,0.0328,0.0358,0.0381,0.0402,0.0423,0.0435,0.046,0.048,0.0509,0.0527,0.0548,0.0576,0.0616,0.0634,0.065,0.0659,0.0659,0.0659,0.0659,0.0654,0.067,0.0655,0.0656,0.0656,0.0656,0.0656,0,0.0297,0.0318,0.0338,0.037,0.0387,0.0404,0.0431,0.0444,0.0462,0.0487,0.0507,0.0532,0.0554,0.0584,0.0608,0.0615,0.0625,0.062,0.062,0.0623,0.0646,0.0643,0.0612,0.0612,0.0612,0.0612,0.0612,0.0612,0.0288,0.0306,0.0323,0.035,0.0371,0.0392,0.0405,0.0424,0.0443,0.047,0.0488,0.0507,0.0533,0.0559,0.0579,0.0587,0.0594,0.0586,0.0597,0.0618,0.0622,0.0626,0.0623,0.0587,0.0587,0.0572,0.0572,0.0572]},{"header":{"parameterUnit":"m.s-1","parameterCategory":1,"la1":30.2991,"la2":30.254,"lo1":-89.0895,"lo2":-89.0444,"dy":0.0017,"dx":0.0017,"nx":28,"ny":28,"refTime":"2026-02-12T03:00:00:Z","depth":0,"parameterNumber":3,"parameterNumberName":"V-component_of_WINDS"},"data":[0,0,0,0,0,0,0,0,0,0,0,0,0,0,0,0,0,0,0,0,0,0,0,0,0,0,0,0,0,0,0,0,0,0,0,0,0,0,0,0,0,0,0,0,0,0,0,0,0,0,0,0,0,0,0,0,0,0,1.7911,1.791,0,1.7876,1.7875,1.7875,1.7873,1.7873,1.7874,1.7874,1.7833,1.7831,1.783,0,0,0,0,0,0,0,0,0,0,0,0,0,1.7972,1.7971,1.7911,1.791,1.791,1.7876,1.7875,1.7875,1.7873,1.7873,1.7874,1.7874,1.7833,1.7831,1.7829,0,0,0,0,0,0,0,0,0,0,0,0,0,1.7942,1.7971,1.7911,1.7905,1.7904,1.7876,1.7875,1.7875,1.7873,1.7873,1.7874,1.7874,1.7834,1.7831,1.7829,1.7803,0,0,1.7822,1.7821,0,0,0,0,0,0,0,0,1.7944,1.794,1.7906,1.7905,1.7904,1.7879,1.7882,1.785,1.7872,1.7884,1.7874,1.7875,1.7847,1.7844,1.7836,1.7801,1.7799,1.7822,1.7821,1.782,1.7819,0,0,0,0,0,0,0,1.7946,1.7941,1.7897,1.7906,1.7905,1.7903,1.7899,1.7876,1.7862,1.7883,1.7883,1.7879,1.7847,1.7838,1.7835,1.7798,1.7822,1.782,1.7819,1.7818,1.774,1.7739,0,0,0,0,0,0,1.795,1.7943,1.7898,1.7896,1.7926,1.7901,1.7897,1.7887,1.7863,1.786,1.7879,1.7879,1.7841,1.7837,1.7833,1.78,1.782,1.7818,1.7816,1.774,1.774,1.7739,0,0,0,0,0,0,1.7951,1.7946,1.7899,1.7919,1.7913,1.7899,1.7888,1.7886,1.7877,1.7859,1.7857,1.7872,1.7842,1.7836,1.7811,1.7799,1.7817,1.7815,1.7741,1.774,1.7739,1.7734,0,0,0,0,0,0,1.7953,1.7946,1.7937,1.7919,1.7912,1.7878,1.7887,1.7884,1.7874,1.7874,1.7853,1.785,1.7842,1.7814,1.7808,1.7796,1.7813,1.7742,1.7741,1.774,1.7736,1.7733,1.7731,0,0,0,0,0,1.7955,1.7936,1.7936,1.7931,1.7901,1.7878,1.7874,1.7867,1.7873,1.7862,1.7852,1.785,1.7802,1.7811,1.7805,1.7792,1.7743,1.7741,1.774,1.7736,1.7734,1.7731,0,0,0,0,0,0,1.795,1.7933,1.7934,1.7909,1.7895,1.7878,1.7864,1.7864,1.7847,1.7848,1.7838,1.7833,1.7808,1.7797,1.7809,1.7765,1.7773,1.777,1.7772,1.777,1.7768,1.777,1.7811,0,0,0,0,0,1.7947,1.7931,1.7917,1.7896,1.7889,1.7878,1.7868,1.7864,1.7849,1.7842,1.7829,1.7813,1.7794,1.7782,1.7763,1.7735,1.7729,1.7723,1.7721,1.7719,1.7716,1.7699,1.7696,1.7733,1.7733,1.7733,0,0,1.7938,1.7927,1.7917,1.7894,1.7883,1.7866,1.7873,1.7854,1.7841,1.7839,1.7814,1.7804,1.7785,1.7758,1.7746,1.7749,1.7705,1.7717,1.7716,1.7713,1.7697,1.7694,1.7691,1.7732,1.7733,1.7733,0,0,1.7914,1.7904,1.7886,1.7875,1.7859,1.7853,1.7848,1.7831,1.7825,1.7801,1.7799,1.7782,1.775,1.7737,1.7726,1.7698,1.7696,1.7693,1.7681,1.7665,1.7662,1.7659,1.7648,1.7645,1.769,1.769,1.769,0,1.7904,1.788,1.7876,1.7858,1.7847,1.7847,1.7827,1.7817,1.7795,1.7787,1.7792,1.7752,1.7739,1.7709,1.7702,1.7694,1.7687,1.7694,1.7663,1.766,1.7658,1.7647,1.7643,1.7689,1.7689,1.769,1.769,0,1.7869,1.7852,1.7839,1.782,1.7808,1.7789,1.7781,1.777,1.7767,1.776,1.7734,1.772,1.7698,1.7691,1.7688,1.766,1.7663,1.7666,1.7673,1.7654,1.7644,1.764,1.7689,1.7689,1.7689,1.7689,0,0,1.7838,1.7819,1.7814,1.7806,1.7789,1.7775,1.7756,1.7737,1.7727,1.7712,1.7695,1.7669,1.7672,1.7659,1.7655,1.7641,1.7619,1.7645,1.7645,1.764,1.7587,1.7584,1.7579,1.7619,1.7618,1.7617,1.7588,0,1.7811,1.7779,1.7775,1.7746,1.773,1.773,1.7714,1.7701,1.7694,1.7678,1.7669,1.765,1.7656,1.7649,1.7635,1.7625,1.7608,1.7627,1.7601,1.76,1.7604,1.7574,1.757,1.7543,1.7584,1.7583,1.7583,0,1.7774,1.7761,1.773,1.7717,1.771,1.7695,1.7678,1.7663,1.7649,1.7644,1.7631,1.7629,1.7608,1.7618,1.7588,1.7601,1.759,1.7584,1.7582,1.7578,1.7589,1.7567,1.7534,1.753,1.7577,1.7577,1.7578,0,1.7753,1.7728,1.7706,1.7699,1.7683,1.7672,1.7665,1.7651,1.764,1.7625,1.7617,1.7599,1.7588,1.7574,1.7566,1.7574,1.7536,1.7546,1.753,1.753,1.752,1.7521,1.7484,1.7517,1.7517,1.7517,1.7517,0,1.7722,1.7703,1.7697,1.7683,1.7662,1.7658,1.7637,1.7629,1.7617,1.7601,1.7601,1.7585,1.7577,1.756,1.7554,1.7529,1.7525,1.7519,1.7517,1.7518,1.7519,1.751,1.7511,1.7516,1.7516,1.7516,1.7516,0,1.7694,1.7689,1.7666,1.7653,1.765,1.7634,1.7623,1.7609,1.7603,1.7583,1.7578,1.7567,1.7548,1.7539,1.7514,1.751,1.7482,1.7482,1.7487,1.7486,1.7471,1.7472,1.7425,1.7418,1.7457,1.7457,1.7457,0,1.7674,1.766,1.7646,1.7637,1.7629,1.7613,1.7603,1.7599,1.7588,1.7571,1.7559,1.754,1.7524,1.7492,1.7481,1.7462,1.7461,1.7446,1.7458,1.7459,1.7459,1.7459,1.7457,1.7443,1.7443,1.7442,1.7442,0,1.7637,1.7636,1.7622,1.7607,1.7596,1.7583,1.7571,1.7563,1.7556,1.7544,1.7525,1.7513,1.7489,1.7469,1.745,1.744,1.7439,1.7439,1.7434,1.7434,1.7437,1.7434,1.748,1.7439,1.744,1.744,1.744,1.744,1.7611,1.7599,1.7588,1.7572,1.7563,1.7552,1.7539,1.7532,1.7517,1.7498,1.7497,1.7476,1.7462,1.7436,1.7426,1.7409,1.7412,1.7405,1.7403,1.7401,1.74,1.7442,1.7405,1.7405,1.7405,1.7406,1.7406,0,1.7574,1.7567,1.7553,1.7537,1.7525,1.7529,1.7516,1.7504,1.7487,1.7475,1.746,1.7438,1.7419,1.7408,1.7389,1.7377,1.7376,1.7372,1.7372,1.7369,1.7398,1.7404,1.7373,1.7373,1.7373,1.7373,1.7373,1.7373,1.7553,1.7531,1.7529,1.7503,1.7497,1.7478,1.747,1.746,1.745,1.7426,1.7412,1.7405,1.7393,1.7374,1.7356,1.7353,1.7345,1.7341,1.7338,1.7364,1.7368,1.7371,1.7376,1.734,1.734,1.731,1.731,1.7309]}]]